Regional Weather Roundup
Issued by NWS

Home | Current Version | Previous Version | Graphics & Text | Print | Product List | Glossary Off
Versions: 1 2 3 4 5 6 7 8 9 10 11 12 13 14 15 16 17 18 19 20 21 22 23 24 25 26 27 28 29 30 31 32 33 34 35 36 37 38 39 40 41 42 43 44 45 46 47 48 49 50

000
ASUS43 KDTX 201410
RWRMI
MICHIGAN HOURLY REGIONAL WEATHER ROUNDUP
NATIONAL WEATHER SERVICE DETROIT/PONTIAC MI
1000 AM EDT SUN APR 20 2014

NOTE: "FAIR" INDICATES FEW OR NO CLOUDS BELOW 12,000 FEET WITH NO
SIGNIFICANT WEATHER AND/OR OBSTRUCTION TO VISIBILITY.

MIZ047>049-052>055-059>063-066>070-074>076-081>083-201500-
SOUTHEAST LOWER MICHIGAN

CITY           SKY/WX    TMP DP  RH WIND       PRES   REMARKS
ADRIAN         SUNNY     50  36  58 S6        30.29F
ALMA           MOSUNNY   46  32  59 S9        30.28F
ANN ARBOR      SUNNY     51  33  50 VRB3      30.30S
BAD AXE        PTSUNNY   47  32  55 S13       30.30F
DETROIT CITY   MOSUNNY   50  33  52 CALM      30.32S
DETROIT        PTSUNNY   50  34  54 CALM      30.32F
FLINT          PTSUNNY   51  31  46 S7        30.29F
GROSSE ILE     SUNNY     46  37  71 S3        30.30F
HILLSDALE      SUNNY     54  31  42 S5        30.27F
HOWELL         MOSUNNY   51  31  44 SE8       30.28F

CITY           SKY/WX    TMP DP  RH WIND       PRES   REMARKS
JACKSON        SUNNY     53  32  44 S8        30.28S
LAMBERTVILLE   SUNNY     54  36  50 SE5       30.29F
LANSING        MOSUNNY   52  31  44 S10       30.27F
LAPEER         NOT AVBL
MASON          SUNNY     51  33  50 SE7       30.28S
MONROE         SUNNY     52  37  58 SE3       30.29F
MT. CLEMENS    PTSUNNY   48  35  61 SE9       30.31S
PONTIAC        PTSUNNY   50  31  48 S7        30.29F
PORT HOPE        N/A     47  33  58 VRB7      30.29F
PORT HURON     MOSUNNY   48  36  61 SE7       30.32S
TRI CITIES     PTSUNNY   49  32  52 S8        30.29F
YPSILANTI      SUNNY     51  34  52 CALM      30.31S
$$
MIZ043>046-050>051-056>058-064>065-071>073-077>080-201500-
SOUTHWEST LOWER MICHIGAN

CITY           SKY/WX    TMP DP  RH WIND       PRES   REMARKS
BATTLE CREEK   SUNNY     52  32  46 S10       30.27F
BENTON HARBOR  MOSUNNY   54  33  45 SW7       30.25R
BIG RAPIDS     MOSUNNY   49  30  46 S7        30.25F
COLDWATER      SUNNY     53  32  45 S6        30.28R
HOLLAND        MOSUNNY   55  29  36 S7        30.26S
GRAND RAPIDS   PTSUNNY   53  29  39 S7        30.27S
KALAMAZOO      SUNNY     51  33  50 S10       30.27F
MARSHALL       SUNNY     53  32  45 S7        30.27S
MUSKEGON       PTSUNNY   54  28  36 SE7       30.25S
$$
MIZ016>042-201500-
NORTHERN LOWER MICHIGAN

CITY           SKY/WX    TMP DP  RH WIND       PRES   REMARKS
ALPENA         PTSUNNY   50  29  44 S13G20    30.27F
BEAVER ISLAND  MIX PCPN  41  37  84 S14G20    30.17F
BELLAIRE       DRIZZLE   48  30  50 S3        30.22F
CADILLAC       CLOUDY    49  28  45 S9        30.22F
CHARLEVOIX     LGT RAIN  46  35  65 SE7       30.23F
FRANKFORT      CLOUDY    51  28  41 S6        30.21S
GAYLORD        CLOUDY    46  28  49 S12       30.23F
GRAYLING       PTSUNNY   48  26  42 SE9       30.25F
HARBOR SPRINGS RAIN      45  38  77 CALM      30.21F
HOUGHTON LAKE  PTSUNNY   49  29  46 S9        30.26F
MANISTEE       CLOUDY    52  27  37 S8        30.23F
OSCODA         MOSUNNY   50  29  43 S8        30.29F
PELLSTON       LGT RAIN  40  37  89 S6        30.21F
TRAVERSE CITY  CLOUDY    51  28  41 SE3       30.21F
$$
MIZ007>008-015-201500-
EASTERN UPPER MICHIGAN

CITY           SKY/WX    TMP DP  RH WIND       PRES   REMARKS
KINROSS        CLOUDY    36  36 100 SE10      30.19S
MACKINAC ISLAN LGT SNOW  38  37  96 S14G20    30.20S
NEWBERRY       CLOUDY    37  36  94 S13G20    30.15S
S. S. MARIE    HVY RAIN  36  34  92 E8        30.21R FOG
$$
MIZ004>006-011>014-085-201500-
CENTRAL UPPER MICHIGAN

CITY           SKY/WX    TMP DP  RH WIND       PRES   REMARKS
MANISTIQUE     RAIN      37  36  96 S10G17    30.17F
ESCANABA       CLOUDY    37  34  87 SW6       30.14S
MENOMINEE      CLOUDY    41  37  87 S9        30.12F
SAWYER-GWINN   CLOUDY    39  39 100 SW12      30.09S FOG
$$
MIZ001>003-009>011-084-201500-
WESTERN UPPER MICHIGAN

CITY           SKY/WX    TMP DP  RH WIND       PRES   REMARKS
IRON MOUNTAIN  CLOUDY    45  42  89 S5        30.09S FOG
HOUGHTON       SUNNY     48  37  65 W12       30.02S
COPPER HARBOR    N/A     53  38  56 VRB3      30.01S
IRONWOOD       MOSUNNY   52  43  71 W5        30.01F
$$

ABBREVIATIONS USED IN REMARKS
   TC - TEMPERATURE IN CELSIUS
  WCI - WIND CHILL INDEX
   HX - HEAT INDEX
  VSB - VISIBILITY




USA.gov is the U.S. government's official web portal to all federal, state and local government web resources and services.